Location: Rumah Sambob
(2.9167°N, 113.9167°E)
Time: 11:15:01
(UTC+00:00)

ARIANE 44LP R/B - Pass Details

Date: 06 June 2020
Orbit: 280 x 30958 km, 3.1° (Epoch: 05 July)

Event Time Altitude Azimuth Distance (km) Brightness Sun altitude
Exits shadow 21:42:30 11° 240° (WSW) 1,263 4.0 -8.2°
Maximum altitude 21:44:41 36° 169° (S) 853 3.7 -7.7°
Drops below altitude 10° 21:51:01 10° 102° (ESE) 3,677 7.9 -6.3°
Sets 21:58:33 0° 96° (E) 7,137 9.7 -4.5°
